Orbital Elements at Epoch 2459000.5 (2020-May-31.0) TDB
Reference: JPL 11 (heliocentric ecliptic J2000)
Element | Value | Uncertainty (1-sigma) | Units |
e | .0287870413428194 | 9.084e-08 | |
a | 2.933259077413156 | 4.959e-08 | au |
q | 2.848819227082463 | 2.6702e-07 | au |
i | 5.0877720108082 | 1.0246e-05 | deg |
node | 307.5924219059326 | 7.2158e-05 | deg |
peri | 147.5068241254259 | 0.00017541 | deg |
M | 201.1258391920657 | 0.00016494 | deg |
tp | 2459810.294514728192 (2022-Aug-18.79451473) | 0.0008505 | TDB |
period | 1834.949269406872 5.02 | 4.6533e-05 1.274e-07 | d yr |
n | .1961907100114905 | 4.9753e-09 | deg/d |
Q | 3.017698927743849 | 5.1018e-08 | au |
|
| | Orbit Determination Parameters
Additional Information
|